NJE9U LIPH-EHAM

Flight info

Callsign NJE9U
Flight time 1h 24m
Altitude 38000
Route VIC DCT OZE DCT KPT DCT TGO DCT NVO DCT EHV
Aircraft CL60/M-SBDE1E2E3FGHIJ1J4J5J7M3RWXYZ/LB1V1D1

Departure

Time 2026-04-29 12:42
Airport Treviso Airport (LIPH)

Arrival

Time 2026-04-29 14:07
Airport Amsterdam Airport Schiphol (EHAM)
Time Latitude Longitude Altitude Speed Heading
2026-04-29 12:22 45.65289 12.20135 60 ft 0 kts 250°
2026-04-29 12:38 45.65282 12.20112 60 ft 5 kts 230°
2026-04-29 12:38 45.65241 12.20128 60 ft 7 kts 128°
2026-04-29 12:38 45.65255 12.20201 60 ft 6 kts 65°
2026-04-29 12:38 45.65245 12.20274 60 ft 9 kts 147°
2026-04-29 12:39 45.65174 12.20248 60 ft 13 kts 203°
2026-04-29 12:39 45.65082 12.20179 60 ft 16 kts 223°
2026-04-29 12:39 45.65013 12.20022 60 ft 20 kts 247°
2026-04-29 12:39 45.64957 12.19814 61 ft 23 kts 249°
2026-04-29 12:40 45.64894 12.19577 62 ft 27 kts 248°
2026-04-29 12:40 45.64824 12.19315 62 ft 29 kts 248°
2026-04-29 12:40 45.64748 12.19027 63 ft 30 kts 250°
2026-04-29 12:40 45.64670 12.18727 64 ft 33 kts 250°
2026-04-29 12:41 45.64583 12.18406 64 ft 35 kts 249°
2026-04-29 12:41 45.64510 12.18123 64 ft 13 kts 248°
2026-04-29 12:41 45.64494 12.18018 64 ft 10 kts 279°
2026-04-29 12:41 45.64507 12.17930 64 ft 9 kts 221°
2026-04-29 12:42 45.64465 12.17968 64 ft 8 kts 68°
2026-04-29 12:42 45.64542 12.18249 64 ft 72 kts 69°
2026-04-29 12:42 45.64827 12.19331 216 ft 148 kts 69°
2026-04-29 12:42 45.65140 12.20694 1200 ft 153 kts 76°
2026-04-29 12:43 45.65297 12.22271 1995 ft 171 kts 82°
2026-04-29 12:43 45.65412 12.24005 2869 ft 183 kts 83°
2026-04-29 12:43 45.65537 12.25851 3735 ft 194 kts 83°
2026-04-29 12:43 45.65679 12.27798 4633 ft 206 kts 83°
2026-04-29 12:44 45.65838 12.29810 5640 ft 207 kts 81°
2026-04-29 12:44 45.66417 12.31634 6619 ft 210 kts 44°
2026-04-29 12:44 45.67757 12.32422 7624 ft 223 kts
2026-04-29 12:44 45.69280 12.32002 8634 ft 234 kts 341°
2026-04-29 12:45 45.70674 12.30832 9649 ft 238 kts 320°
2026-04-29 12:45 45.71696 12.29019 10697 ft 241 kts 298°
2026-04-29 12:45 45.72185 12.26753 11714 ft 248 kts 275°
2026-04-29 12:45 45.72029 12.24309 12757 ft 250 kts 259°
2026-04-29 12:46 45.71671 12.21871 13769 ft 251 kts 259°
2026-04-29 12:46 45.71321 12.19455 14760 ft 252 kts 260°
2026-04-29 12:46 45.70961 12.16960 15484 ft 270 kts 259°
2026-04-29 12:46 45.70564 12.14198 16136 ft 293 kts 259°
2026-04-29 12:47 45.70134 12.11231 16754 ft 315 kts 259°
2026-04-29 12:47 45.69672 12.08052 17364 ft 335 kts 259°
2026-04-29 12:47 45.69190 12.04740 17975 ft 351 kts 259°
2026-04-29 12:47 45.68711 12.01217 18609 ft 365 kts 263°
2026-04-29 12:48 45.68768 11.97557 19255 ft 375 kts 281°
2026-04-29 12:48 45.69663 11.94027 19895 ft 384 kts 298°
2026-04-29 12:48 45.71379 11.91085 20533 ft 391 kts 318°
2026-04-29 12:48 45.73714 11.89044 21149 ft 398 kts 330°
2026-04-29 12:49 45.76200 11.87230 21768 ft 400 kts 330°
2026-04-29 12:49 45.78675 11.85349 22400 ft 400 kts 327°
2026-04-29 12:49 45.81083 11.83281 23039 ft 402 kts 326°
2026-04-29 12:49 45.83465 11.81216 23670 ft 405 kts 326°
2026-04-29 12:50 45.85891 11.79114 24307 ft 408 kts 326°
2026-04-29 12:50 45.88333 11.76998 24939 ft 411 kts 326°
2026-04-29 12:50 45.90789 11.74868 25562 ft 415 kts 326°
2026-04-29 12:50 45.93274 11.72713 26191 ft 418 kts 326°
2026-04-29 12:51 45.95757 11.70556 26834 ft 420 kts 325°
2026-04-29 12:51 45.98298 11.68349 27476 ft 422 kts 325°
2026-04-29 12:51 46.00810 11.66167 28120 ft 423 kts 325°
2026-04-29 12:51 46.03347 11.63961 28757 ft 424 kts 325°
2026-04-29 12:52 46.05877 11.61759 29305 ft 427 kts 325°
2026-04-29 12:52 46.08413 11.59549 29831 ft 430 kts 325°
2026-04-29 12:52 46.10927 11.57357 30329 ft 432 kts 325°
2026-04-29 12:52 46.13495 11.55115 30831 ft 432 kts 325°
2026-04-29 12:53 46.16079 11.52859 31357 ft 430 kts 325°
2026-04-29 12:53 46.18651 11.50611 31812 ft 428 kts 325°
2026-04-29 12:53 46.21182 11.48398 32294 ft 424 kts 325°
2026-04-29 12:53 46.23675 11.46214 32831 ft 422 kts 325°
2026-04-29 12:54 46.26208 11.43994 33424 ft 418 kts 325°
2026-04-29 12:54 46.28660 11.41842 34000 ft 415 kts 325°
2026-04-29 12:54 46.31144 11.39660 34567 ft 412 kts 325°
2026-04-29 12:54 46.33574 11.37522 35102 ft 410 kts 325°
2026-04-29 12:55 46.36006 11.35380 35625 ft 408 kts 324°
2026-04-29 12:55 46.38456 11.33220 36116 ft 407 kts 324°
2026-04-29 12:55 46.40880 11.31081 36567 ft 406 kts 324°
2026-04-29 12:55 46.43257 11.28981 37001 ft 405 kts 324°
2026-04-29 12:56 46.45684 11.26834 37426 ft 404 kts 324°
2026-04-29 12:56 46.48078 11.24714 37787 ft 404 kts 324°
2026-04-29 12:56 46.50496 11.22571 38106 ft 404 kts 324°
2026-04-29 12:56 46.52879 11.20457 38398 ft 404 kts 324°
2026-04-29 12:57 46.55285 11.18318 38414 ft 412 kts 324°
2026-04-29 12:57 46.57761 11.16111 38089 ft 425 kts 324°
2026-04-29 12:57 46.60316 11.13834 37748 ft 431 kts 324°
2026-04-29 12:57 46.62883 11.11549 37422 ft 429 kts 324°
2026-04-29 12:58 46.65404 11.09301 37112 ft 427 kts 324°
2026-04-29 12:58 46.67957 11.07023 36767 ft 426 kts 324°
2026-04-29 12:58 46.70487 11.04761 36470 ft 426 kts 324°
2026-04-29 12:58 46.73022 11.02493 36236 ft 426 kts 324°
2026-04-29 12:59 46.75529 11.00248 36067 ft 426 kts 324°
2026-04-29 12:59 46.80582 10.95715 36062 ft 424 kts 324°
2026-04-29 13:00 46.85613 10.91188 36146 ft 426 kts 324°
2026-04-29 13:00 46.90663 10.86635 36493 ft 424 kts 324°
2026-04-29 13:00 46.93156 10.84386 36904 ft 417 kts 324°
2026-04-29 13:01 46.95610 10.82171 37362 ft 410 kts 324°
2026-04-29 13:01 46.98005 10.80005 37754 ft 406 kts 324°
2026-04-29 13:01 47.00400 10.77835 38057 ft 405 kts 324°
2026-04-29 13:01 47.02805 10.75652 38228 ft 408 kts 324°
2026-04-29 13:02 47.05267 10.73415 38267 ft 414 kts 324°
2026-04-29 13:02 47.10172 10.68949 38227 ft 426 kts 324°
2026-04-29 13:03 47.15332 10.64245 38191 ft 432 kts 325°
2026-04-29 13:03 47.20462 10.59559 38174 ft 430 kts 325°
2026-04-29 13:04 47.25524 10.54925 38192 ft 429 kts 325°
2026-04-29 13:04 47.30613 10.50255 38203 ft 430 kts 325°
2026-04-29 13:05 47.35690 10.45585 38142 ft 431 kts 325°
2026-04-29 13:05 47.40799 10.40875 38097 ft 431 kts 325°
2026-04-29 13:06 47.45883 10.36178 38055 ft 431 kts 325°
2026-04-29 13:06 47.50941 10.31495 38401 ft 424 kts 324°
2026-04-29 13:06 47.53424 10.29192 38628 ft 422 kts 324°
2026-04-29 13:07 47.55913 10.26880 38842 ft 421 kts 324°
2026-04-29 13:07 47.60960 10.22179 38623 ft 436 kts 324°
2026-04-29 13:07 47.63535 10.19778 38443 ft 438 kts 324°
2026-04-29 13:08 47.66103 10.17382 38286 ft 436 kts 324°
2026-04-29 13:08 47.71194 10.12627 38209 ft 429 kts 324°
2026-04-29 13:09 47.76263 10.07876 38168 ft 432 kts 324°
2026-04-29 13:09 47.81382 10.03067 38171 ft 433 kts 324°
2026-04-29 13:10 47.86474 9.98272 38178 ft 433 kts 324°
2026-04-29 13:10 47.91583 9.93450 38180 ft 433 kts 324°
2026-04-29 13:11 47.96675 9.88633 38179 ft 433 kts 324°
2026-04-29 13:11 48.01759 9.83812 38179 ft 433 kts 324°
2026-04-29 13:12 48.06860 9.78963 38179 ft 433 kts 324°
2026-04-29 13:12 48.11919 9.74143 38179 ft 433 kts 324°
2026-04-29 13:13 48.17042 9.69250 38183 ft 433 kts 324°
2026-04-29 13:13 48.22135 9.64374 38186 ft 433 kts 324°
2026-04-29 13:14 48.27214 9.59500 38184 ft 434 kts 324°
2026-04-29 13:14 48.32306 9.54601 38197 ft 434 kts 325°
2026-04-29 13:15 48.37408 9.49680 38209 ft 434 kts 325°
2026-04-29 13:15 48.42490 9.44767 38207 ft 435 kts 325°
2026-04-29 13:16 48.47628 9.39789 38208 ft 435 kts 325°
2026-04-29 13:16 48.52686 9.34875 38203 ft 436 kts 324°
2026-04-29 13:17 48.57832 9.29864 38197 ft 436 kts 324°
2026-04-29 13:17 48.62913 9.24796 38187 ft 436 kts 322°
2026-04-29 13:18 48.67778 9.19319 38182 ft 436 kts 321°
2026-04-29 13:18 48.72665 9.13802 38182 ft 436 kts 321°
2026-04-29 13:19 48.77534 9.08294 38181 ft 437 kts 321°
2026-04-29 13:19 48.82409 9.02766 38186 ft 437 kts 322°
2026-04-29 13:20 48.87282 8.97228 38187 ft 437 kts 322°
2026-04-29 13:20 48.92195 8.91631 38188 ft 438 kts 322°
2026-04-29 13:21 48.97051 8.86086 38188 ft 439 kts 322°
2026-04-29 13:21 49.01968 8.80459 38187 ft 439 kts 322°
2026-04-29 13:22 49.06849 8.74858 38188 ft 440 kts 322°
2026-04-29 13:22 49.11716 8.69259 38202 ft 440 kts 322°
2026-04-29 13:23 49.16645 8.63574 38216 ft 441 kts 322°
2026-04-29 13:23 49.21545 8.57908 38220 ft 442 kts 322°
2026-04-29 13:24 49.26461 8.52210 38230 ft 442 kts 322°
2026-04-29 13:24 49.31366 8.46510 38223 ft 442 kts 322°
2026-04-29 13:25 49.36266 8.40800 38230 ft 443 kts 323°
2026-04-29 13:25 49.43662 8.32155 38236 ft 444 kts 322°
2026-04-29 13:26 49.48607 8.26356 38235 ft 445 kts 322°
2026-04-29 13:26 49.53539 8.20558 38240 ft 445 kts 322°
2026-04-29 13:27 49.58443 8.14777 38246 ft 446 kts 322°
2026-04-29 13:27 49.63386 8.08934 38253 ft 446 kts 323°
2026-04-29 13:28 49.68312 8.03096 38258 ft 447 kts 323°
2026-04-29 13:28 49.73253 7.97225 38260 ft 448 kts 323°
2026-04-29 13:29 49.78231 7.91294 38263 ft 448 kts 323°
2026-04-29 13:29 49.83154 7.85414 38266 ft 449 kts 323°
2026-04-29 13:30 49.88098 7.79493 38272 ft 449 kts 323°
2026-04-29 13:30 49.93066 7.73527 38280 ft 449 kts 323°
2026-04-29 13:31 49.98031 7.67549 38275 ft 450 kts 323°
2026-04-29 13:31 50.02954 7.61608 38285 ft 450 kts 323°
2026-04-29 13:32 50.07921 7.55592 38259 ft 450 kts 323°
2026-04-29 13:32 50.12738 7.49735 38263 ft 449 kts 323°
2026-04-29 13:33 50.17675 7.43720 38264 ft 449 kts 323°
2026-04-29 13:33 50.22622 7.37683 38259 ft 450 kts 323°
2026-04-29 13:34 50.27530 7.31689 38260 ft 450 kts 323°
2026-04-29 13:34 50.32452 7.25647 38273 ft 450 kts 323°
2026-04-29 13:35 50.37418 7.19535 38278 ft 451 kts 323°
2026-04-29 13:35 50.42351 7.13456 38278 ft 451 kts 323°
2026-04-29 13:36 50.47337 7.07292 38280 ft 451 kts 323°
2026-04-29 13:36 50.52252 7.01210 38288 ft 451 kts 323°
2026-04-29 13:37 50.57205 6.95050 38286 ft 452 kts 323°
2026-04-29 13:37 50.62143 6.88890 38281 ft 452 kts 323°
2026-04-29 13:38 50.67088 6.82713 38282 ft 452 kts 323°
2026-04-29 13:38 50.72046 6.76494 38276 ft 452 kts 324°
2026-04-29 13:39 50.74519 6.73388 37959 ft 451 kts 324°
2026-04-29 13:39 50.76950 6.70325 37509 ft 446 kts 324°
2026-04-29 13:39 50.79395 6.67235 36982 ft 443 kts 324°
2026-04-29 13:39 50.81734 6.64150 36431 ft 442 kts 320°
2026-04-29 13:40 50.83844 6.60558 35868 ft 441 kts 312°
2026-04-29 13:40 50.85764 6.56763 35291 ft 439 kts 312°
2026-04-29 13:40 50.87667 6.52991 34719 ft 437 kts 313°
2026-04-29 13:40 50.89564 6.49231 34149 ft 434 kts 313°
2026-04-29 13:41 50.91454 6.45483 33524 ft 437 kts 313°
2026-04-29 13:41 50.93345 6.41730 32903 ft 442 kts 313°
2026-04-29 13:41 50.95272 6.37899 32304 ft 446 kts 314°
2026-04-29 13:41 50.97147 6.34166 31745 ft 449 kts 313°
2026-04-29 13:42 50.99126 6.30219 31136 ft 453 kts 314°
2026-04-29 13:42 51.01098 6.26281 30599 ft 456 kts 314°
2026-04-29 13:42 51.03090 6.22297 30021 ft 459 kts 314°
2026-04-29 13:42 51.05077 6.18318 29440 ft 461 kts 314°
2026-04-29 13:43 51.07076 6.14304 28848 ft 460 kts 314°
2026-04-29 13:43 51.09066 6.10301 28255 ft 457 kts 314°
2026-04-29 13:43 51.11025 6.06355 27673 ft 453 kts 314°
2026-04-29 13:43 51.12971 6.02427 27090 ft 448 kts 314°
2026-04-29 13:44 51.14893 5.98545 26517 ft 444 kts 314°
2026-04-29 13:44 51.16787 5.94714 25946 ft 440 kts 314°
2026-04-29 13:44 51.18666 5.90909 25382 ft 435 kts 313°
2026-04-29 13:44 51.20528 5.87132 24835 ft 431 kts 313°
2026-04-29 13:45 51.22374 5.83385 24287 ft 428 kts 313°
2026-04-29 13:45 51.24222 5.79626 23735 ft 424 kts 313°
2026-04-29 13:45 51.26041 5.75924 23192 ft 420 kts 313°
2026-04-29 13:45 51.27826 5.72286 22658 ft 417 kts 312°
2026-04-29 13:46 51.29611 5.68642 22134 ft 414 kts 312°
2026-04-29 13:46 51.31384 5.65018 21601 ft 410 kts 312°
2026-04-29 13:46 51.33135 5.61432 21059 ft 406 kts 312°
2026-04-29 13:46 51.34840 5.57938 20562 ft 401 kts 312°
2026-04-29 13:47 51.36561 5.54405 20034 ft 398 kts 312°
2026-04-29 13:47 51.38279 5.50874 19524 ft 394 kts 312°
2026-04-29 13:47 51.39959 5.47417 19021 ft 391 kts 312°
2026-04-29 13:47 51.41617 5.44000 18538 ft 387 kts 312°
2026-04-29 13:48 51.43269 5.40591 18018 ft 384 kts 311°
2026-04-29 13:48 51.44762 5.37069 17537 ft 385 kts 301°
2026-04-29 13:48 51.45712 5.33114 17016 ft 385 kts 290°
2026-04-29 13:48 51.46508 5.29063 16513 ft 382 kts 290°
2026-04-29 13:49 51.47318 5.24969 16033 ft 379 kts 290°
2026-04-29 13:49 51.48111 5.20962 15535 ft 377 kts 290°
2026-04-29 13:49 51.48909 5.16926 15057 ft 374 kts 290°
2026-04-29 13:49 51.49683 5.13010 14591 ft 372 kts 290°
2026-04-29 13:50 51.50465 5.09032 14110 ft 367 kts 290°
2026-04-29 13:50 51.51225 5.05166 13649 ft 358 kts 290°
2026-04-29 13:50 51.51966 5.01388 13192 ft 350 kts 290°
2026-04-29 13:50 51.52692 4.97680 12732 ft 342 kts 290°
2026-04-29 13:51 51.53395 4.94091 12320 ft 333 kts 290°
2026-04-29 13:51 51.54079 4.90596 11886 ft 326 kts 290°
2026-04-29 13:51 51.54756 4.87129 11469 ft 319 kts 290°
2026-04-29 13:51 51.55414 4.83752 11069 ft 313 kts 290°
2026-04-29 13:52 51.56056 4.80450 10682 ft 307 kts 290°
2026-04-29 13:52 51.56688 4.77207 10270 ft 303 kts 290°
2026-04-29 13:52 51.57319 4.73965 9884 ft 299 kts 290°
2026-04-29 13:52 51.57929 4.70814 9516 ft 295 kts 290°
2026-04-29 13:53 51.58540 4.67666 9138 ft 296 kts 290°
2026-04-29 13:53 51.59150 4.64510 8749 ft 298 kts 290°
2026-04-29 13:53 51.59769 4.61302 8379 ft 296 kts 290°
2026-04-29 13:53 51.60382 4.58120 7989 ft 298 kts 289°
2026-04-29 13:54 51.61026 4.54974 7628 ft 295 kts 296°
2026-04-29 13:54 51.62161 4.52330 7406 ft 285 kts 321°
2026-04-29 13:54 51.63815 4.50652 7361 ft 278 kts 345°
2026-04-29 13:54 51.65705 4.50113 7360 ft 270 kts
2026-04-29 13:55 51.67523 4.50649 7344 ft 264 kts 23°
2026-04-29 13:55 51.69285 4.51620 7346 ft 264 kts 24°
2026-04-29 13:55 51.71024 4.52581 7337 ft 265 kts 24°
2026-04-29 13:55 51.72776 4.53542 7348 ft 265 kts 24°
2026-04-29 13:56 51.74535 4.54511 7344 ft 264 kts 24°
2026-04-29 13:56 51.76277 4.55470 7350 ft 265 kts 24°
2026-04-29 13:56 51.78011 4.56423 7347 ft 265 kts 24°
2026-04-29 13:56 51.79786 4.57410 7224 ft 266 kts 24°
2026-04-29 13:57 51.81531 4.58378 7029 ft 263 kts 24°
2026-04-29 13:57 51.83259 4.59335 6887 ft 262 kts 24°
2026-04-29 13:57 51.84977 4.60290 6772 ft 262 kts 24°
2026-04-29 13:57 51.86703 4.61244 6644 ft 261 kts 24°
2026-04-29 13:58 51.88418 4.62197 6519 ft 260 kts 24°
2026-04-29 13:58 51.90155 4.63164 6397 ft 260 kts 24°
2026-04-29 13:58 51.91848 4.64107 6278 ft 260 kts 24°
2026-04-29 13:58 51.93559 4.65066 6153 ft 259 kts 24°
2026-04-29 13:59 51.95282 4.66023 6029 ft 253 kts 24°
2026-04-29 13:59 51.96892 4.66923 5916 ft 238 kts 24°
2026-04-29 13:59 51.98420 4.67771 5764 ft 227 kts 25°
2026-04-29 13:59 51.99889 4.68592 5578 ft 218 kts 25°
2026-04-29 14:00 52.01304 4.69386 5385 ft 210 kts 25°
2026-04-29 14:00 52.02673 4.70154 5166 ft 205 kts 25°
2026-04-29 14:00 52.04012 4.70909 4910 ft 202 kts 25°
2026-04-29 14:00 52.05333 4.71653 4662 ft 199 kts 25°
2026-04-29 14:01 52.06643 4.72393 4411 ft 199 kts 25°
2026-04-29 14:01 52.07950 4.73128 4115 ft 200 kts 25°
2026-04-29 14:01 52.09280 4.73875 3825 ft 199 kts 25°
2026-04-29 14:01 52.10450 4.74535 3593 ft 197 kts 25°
2026-04-29 14:02 52.11747 4.75263 3334 ft 195 kts 25°
2026-04-29 14:02 52.13041 4.75976 3068 ft 196 kts 21°
2026-04-29 14:02 52.14390 4.76329 2849 ft 198 kts 10°
2026-04-29 14:02 52.15758 4.76479 2583 ft 190 kts
2026-04-29 14:03 52.17007 4.76601 2357 ft 176 kts
2026-04-29 14:03 52.18241 4.76729 2137 ft 177 kts
2026-04-29 14:03 52.19472 4.76849 1922 ft 176 kts
2026-04-29 14:03 52.20664 4.76951 1700 ft 163 kts 10°
2026-04-29 14:04 52.21742 4.77043 1518 ft 139 kts 10°
2026-04-29 14:04 52.22638 4.77111 1333 ft 124 kts 11°
2026-04-29 14:04 52.23499 4.77197 1106 ft 121 kts 12°
2026-04-29 14:04 52.24324 4.77282 979 ft 117 kts 12°
2026-04-29 14:05 52.25151 4.77368 792 ft 118 kts 11°
2026-04-29 14:05 52.25964 4.77418 668 ft 117 kts
2026-04-29 14:05 52.26785 4.77445 572 ft 116 kts
2026-04-29 14:05 52.27594 4.77471 484 ft 116 kts
2026-04-29 14:06 52.28398 4.77533 382 ft 114 kts
2026-04-29 14:06 52.29200 4.77625 265 ft 114 kts 15°
2026-04-29 14:06 52.29898 4.78166 100 ft 110 kts 41°
2026-04-29 14:06 52.30466 4.78961 -4 ft 96 kts 42°
2026-04-29 14:07 52.30789 4.79423 -4 ft 39 kts 41°
2026-04-29 14:07 52.30898 4.79580 -4 ft 9 kts 44°
2026-04-29 14:07 52.30882 4.79652 -4 ft 7 kts 131°
2026-04-29 14:07 52.30853 4.79708 -4 ft 7 kts 130°
2026-04-29 14:08 52.30824 4.79764 -4 ft 5 kts 121°
2026-04-29 14:08 52.30838 4.79840 -4 ft 9 kts 48°
2026-04-29 14:08 52.30894 4.79923 -4 ft 12 kts 41°
2026-04-29 14:08 52.30968 4.80028 -4 ft 15 kts 41°
2026-04-29 14:09 52.31036 4.80124 -4 ft 8 kts 39°
2026-04-29 14:09 52.31061 4.80224 -4 ft 12 kts 110°
2026-04-29 14:09 52.31021 4.80312 -4 ft 9 kts 131°
2026-04-29 14:09 52.30973 4.80401 -4 ft 7 kts 131°
2026-04-29 14:10 52.30979 4.80494 -4 ft 11 kts 42°
2026-04-29 14:10 52.31056 4.80527 -4 ft 14 kts 329°
2026-04-29 14:10 52.31134 4.80428 -4 ft 10 kts 330°
2026-04-29 14:10 52.31151 4.80401 -4 ft 2 kts 310°
2026-04-29 14:11 52.31155 4.80391 -4 ft 0 kts 310°